,,PA_Meas_PMT16A,,PR_Meas_QMR101_102,,RH_Meas_QMH101,,SR_Meas_QMS101,,TA_Meas_QMH101,,GenWind,,GenWind,
time,status,PA,status,PR,status,RH,status,SR,status,TA,status,DirAvg,status,SpdAvg,
2016-05-23, 07:23:04,VALID,918.542,VALID,0,VALID,103.046,VALID,78.8618,VALID,21.538,VALID,149,VALID,0,
2016-05-23, 07:28:04,VALID,918.59,VALID,0,VALID,104,VALID,93.3664,VALID,21.5949,VALID,149,VALID,0,
2016-05-23, 07:29:04,VALID,918.648,VALID,0,VALID,104,VALID,96.4822,VALID,21.6534,VALID,149,VALID,0,
2016-05-23, 07:30:04,VALID,918.645,VALID,0,VALID,104,VALID,99.0607,VALID,21.7315,VALID,145,VALID,0,
2016-05-23, 07:31:04,VALID,918.625,VALID,0,VALID,104,VALID,100.887,VALID,21.751,VALID,100,VALID,0,
2016-05-23, 07:32:04,VALID,918.684,VALID,0,VALID,104,VALID,102.284,VALID,21.7705,VALID,52,VALID,0,
2016-05-23, 07:33:04,VALID,918.672,VALID,0,VALID,104,VALID,103.466,VALID,21.8112,VALID,23,VALID,0,
2016-05-23, 07:43:04,VALID,918.852,VALID,0,VALID,104,VALID,117.756,VALID,21.8079,VALID,10,VALID,0,
2016-05-23, 07:44:04,VALID,918.878,VALID,0,VALID,104,VALID,118.508,VALID,21.7688,VALID,11,VALID,0,
2016-05-23, 07:45:04,VALID,918.885,VALID,0,VALID,104,VALID,119.045,VALID,21.7883,VALID,358,VALID,0,
2016-05-23, 07:46:04,VALID,918.914,VALID,0,VALID,104,VALID,119.475,VALID,21.8095,VALID,335,VALID,0,
2016-05-23, 07:47:04,VALID,918.921,VALID,0,VALID,104,VALID,119.689,VALID,21.8095,VALID,340,VALID,0,
2016-05-23, 07:48:04,VALID,918.949,VALID,0,VALID,104,VALID,120.012,VALID,21.7883,VALID,359,VALID,0,
2016-05-23, 07:49:04,VALID,918.964,VALID,0,VALID,104,VALID,120.549,VALID,21.8079,VALID,356,VALID,0,
2016-05-23, 07:50:04,VALID,918.992,VALID,0,VALID,104,VALID,120.979,VALID,21.8469,VALID,17,VALID,0,
2016-05-23, 07:51:04,VALID,918.974,VALID,0,VALID,104,VALID,121.409,VALID,21.8859,VALID,18,VALID,0,
2016-05-23, 07:52:04,VALID,919.004,VALID,0,VALID,104,VALID,122.161,VALID,21.8664,VALID,5,VALID,0,
2016-05-23, 07:53:04,VALID,919.016,VALID,0,VALID,104,VALID,122.913,VALID,21.8859,VALID,3,VALID,0,
2016-05-23, 07:54:04,VALID,919.056,VALID,0,VALID,104,VALID,123.772,VALID,21.9054,VALID,2,VALID,0,
2016-05-23, 07:55:04,VALID,919.051,VALID,0,VALID,103.084,VALID,124.417,VALID,21.9249,VALID,355,VALID,0,
2016-05-23, 07:56:04,VALID,919.079,VALID,0,VALID,104,VALID,124.954,VALID,21.964,VALID,14,VALID,0,
2016-05-23, 07:57:04,VALID,919.096,VALID,0,VALID,101.94,VALID,125.491,VALID,21.964,VALID,1,VALID,0,
2016-05-23, 07:58:04,VALID,919.119,VALID,0,VALID,103.839,VALID,126.243,VALID,21.9835,VALID,344,VALID,0,
2016-05-23, 07:59:04,VALID,919.149,VALID,0,VALID,103.602,VALID,126.995,VALID,22.0225,VALID,359,VALID,0,
2016-05-23, 08:00:04,VALID,919.15,VALID,0,VALID,101.986,VALID,127.855,VALID,22.0225,VALID,344,VALID,0,
2016-05-23, 08:01:04,VALID,919.148,VALID,0,VALID,101.895,VALID,128.607,VALID,22.0615,VALID,26,VALID,0,
2016-05-23, 08:02:04,VALID,919.193,VALID,0,VALID,102.687,VALID,130.004,VALID,22.0989,VALID,17,VALID,0,
2016-05-23, 08:03:04,VALID,919.181,VALID,0,VALID,99.3179,VALID,131.508,VALID,22.1591,VALID,357,VALID,0,
2016-05-23, 08:04:04,VALID,919.221,VALID,0,VALID,103.183,VALID,133.334,VALID,22.1786,VALID,359,VALID,0,
2016-05-23, 08:05:04,VALID,919.227,VALID,0,VALID,102.443,VALID,135.483,VALID,22.1591,VALID,2,VALID,0,
2016-05-23, 08:06:04,VALID,919.245,VALID,0,VALID,103.168,VALID,138.169,VALID,22.1396,VALID,10,VALID,0,
2016-05-23, 08:07:04,VALID,919.289,VALID,0,VALID,103.854,VALID,141.5,VALID,22.1396,VALID,1,VALID,0,
2016-05-23, 08:08:04,VALID,919.281,VALID,0,VALID,104,VALID,144.831,VALID,22.1413,VALID,15,VALID,0,
2016-05-23, 08:09:04,VALID,919.307,VALID,0,VALID,103.64,VALID,147.946,VALID,22.1201,VALID,20,VALID,0,
2016-05-23, 08:10:04,VALID,919.301,VALID,0,VALID,102.405,VALID,150.525,VALID,22.1379,VALID,18,VALID,0,
2016-05-23, 08:11:04,VALID,919.349,VALID,0,VALID,101.231,VALID,153.211,VALID,22.2176,VALID,8,VALID,0,
2016-05-23, 08:12:04,VALID,919.365,VALID,0,VALID,101.956,VALID,155.575,VALID,22.2371,VALID,1,VALID,0,
2016-05-23, 08:13:04,VALID,919.349,VALID,0,VALID,103.747,VALID,157.616,VALID,22.2567,VALID,6,VALID,0,
2016-05-23, 08:14:04,VALID,919.349,VALID,0,VALID,99.9201,VALID,159.658,VALID,22.2762,VALID,29,VALID,0.134375,
2016-05-23, 08:15:04,VALID,919.352,VALID,0,VALID,99.9277,VALID,161.806,VALID,22.3542,VALID,30,VALID,0,
2016-05-23, 08:16:04,VALID,919.367,VALID,0,VALID,95.7425,VALID,163.848,VALID,22.4128,VALID,1,VALID,0,
2016-05-23, 08:17:04,VALID,919.364,VALID,0,VALID,95.4833,VALID,165.997,VALID,22.4713,VALID,16,VALID,0,
2016-05-23, 08:18:04,VALID,919.36,VALID,0,VALID,92.0375,VALID,168.468,VALID,22.4713,VALID,14,VALID,0,
2016-05-23, 08:19:04,VALID,919.357,VALID,0,VALID,99.5161,VALID,171.369,VALID,22.5103,VALID,42,VALID,0,
2016-05-23, 08:20:04,VALID,919.372,VALID,0,VALID,94.9115,VALID,174.592,VALID,22.5477,VALID,23,VALID,0,
2016-05-23, 08:21:04,VALID,919.37,VALID,0,VALID,95.2012,VALID,178.137,VALID,22.5884,VALID,15,VALID,0,
2016-05-23, 08:22:04,VALID,919.357,VALID,0,VALID,97.4577,VALID,181.79,VALID,22.5672,VALID,341,VALID,0,
2016-05-23, 08:23:04,VALID,919.35,VALID,0,VALID,93.6689,VALID,185.766,VALID,22.6079,VALID,333,VALID,0,
2016-05-23, 08:24:04,VALID,919.332,VALID,0,VALID,98.7614,VALID,189.956,VALID,22.6274,VALID,354,VALID,0,
2016-05-23, 08:25:04,VALID,919.344,VALID,0,VALID,87.8218,VALID,193.824,VALID,22.6096,VALID,352,VALID,0,
2016-05-23, 08:26:04,VALID,919.341,VALID,0,VALID,93.0285,VALID,197.477,VALID,22.647,VALID,348,VALID,0,
2016-05-23, 08:27:04,VALID,919.296,VALID,0,VALID,96.0017,VALID,200.485,VALID,22.686,VALID,348,VALID,0,
2016-05-23, 08:28:04,VALID,919.326,VALID,0,VALID,99.295,VALID,202.741,VALID,22.7658,VALID,7,VALID,0,
2016-05-23, 08:29:04,VALID,919.28,VALID,0,VALID,90.307,VALID,204.461,VALID,22.7836,VALID,353,VALID,0,
2016-05-23, 08:30:04,VALID,919.303,VALID,0,VALID,93.1581,VALID,205.857,VALID,22.8439,VALID,356,VALID,0,
2016-05-23, 08:31:04,VALID,919.329,VALID,0,VALID,82.1804,VALID,207.254,VALID,22.8226,VALID,299,VALID,0,
2016-05-23, 08:32:04,VALID,919.29,VALID,0,VALID,90.1621,VALID,208.114,VALID,22.9202,VALID,7,VALID,0,
2016-05-23, 08:33:04,VALID,919.321,VALID,0,VALID,85.6643,VALID,208.973,VALID,22.9983,VALID,5,VALID,0,
2016-05-23, 08:34:04,VALID,919.296,VALID,0,VALID,82.6455,VALID,209.725,VALID,23.0763,VALID,8,VALID,0,
2016-05-23, 08:35:04,VALID,919.283,VALID,0,VALID,82.8742,VALID,210.692,VALID,23.1544,VALID,10,VALID,0,
2016-05-23, 08:36:04,VALID,919.293,VALID,0,VALID,81.1818,VALID,211.552,VALID,23.2715,VALID,11,VALID,0,
2016-05-23, 08:37:04,VALID,919.306,VALID,0,VALID,80.9836,VALID,213.271,VALID,23.3106,VALID,323,VALID,0,
2016-05-23, 08:38:04,VALID,919.284,VALID,0,VALID,81.2046,VALID,215.312,VALID,23.3106,VALID,24,VALID,0,
2016-05-23, 08:39:04,VALID,919.269,VALID,0,VALID,80.0764,VALID,217.998,VALID,23.3674,VALID,13,VALID,0,
2016-05-23, 08:40:04,VALID,919.289,VALID,0,VALID,78.4373,VALID,220.684,VALID,23.4277,VALID,351,VALID,0,
2016-05-23, 08:41:04,VALID,919.291,VALID,0,VALID,79.6495,VALID,222.618,VALID,23.4472,VALID,359,VALID,0,
2016-05-23, 08:42:04,VALID,919.272,VALID,0,VALID,79.192,VALID,224.015,VALID,23.4667,VALID,7,VALID,0,
2016-05-23, 08:43:04,VALID,919.275,VALID,0,VALID,79.6723,VALID,225.197,VALID,23.5253,VALID,7,VALID,0,
2016-05-23, 08:44:04,VALID,919.292,VALID,0,VALID,81.0674,VALID,225.519,VALID,23.5626,VALID,356,VALID,0,
2016-05-23, 08:45:04,VALID,919.281,VALID,0,VALID,80.9226,VALID,226.486,VALID,23.5839,VALID,24,VALID,0,
2016-05-23, 08:46:04,VALID,919.291,VALID,0,VALID,80.9759,VALID,227.99,VALID,23.6424,VALID,11,VALID,0,
2016-05-23, 08:47:04,VALID,919.293,VALID,0,VALID,79.6037,VALID,229.172,VALID,23.74,VALID,11,VALID,0,
2016-05-23, 08:48:04,VALID,919.278,VALID,0,VALID,78.1324,VALID,231.643,VALID,23.7773,VALID,11,VALID,0,
2016-05-23, 08:49:04,VALID,919.269,VALID,0,VALID,80.4347,VALID,235.511,VALID,23.7382,VALID,10,VALID,0,
2016-05-23, 08:50:04,VALID,919.278,VALID,0,VALID,78.9328,VALID,241.743,VALID,23.6992,VALID,10,VALID,0,
2016-05-23, 08:51:04,VALID,919.247,VALID,0,VALID,78.8109,VALID,248.297,VALID,23.662,VALID,10,VALID,0,
2016-05-23, 08:52:04,VALID,919.254,VALID,0,VALID,79.4665,VALID,256.892,VALID,23.6406,VALID,9,VALID,0,
2016-05-23, 08:53:04,VALID,919.239,VALID,0,VALID,81.2885,VALID,267.743,VALID,23.6797,VALID,359,VALID,0,
2016-05-23, 08:54:04,VALID,919.245,VALID,0,VALID,78.0104,VALID,279.454,VALID,23.6602,VALID,327,VALID,0,
2016-05-23, 08:55:04,VALID,919.259,VALID,0,VALID,78.7575,VALID,289.554,VALID,23.6602,VALID,5,VALID,0,
2016-05-23, 08:56:04,VALID,919.242,VALID,0,VALID,80.549,VALID,301.372,VALID,23.7187,VALID,37,VALID,0,
2016-05-23, 08:57:04,VALID,919.245,VALID,0,VALID,79.1997,VALID,315.555,VALID,23.8163,VALID,20,VALID,0,
2016-05-23, 08:58:04,VALID,919.276,VALID,0,VALID,78.6965,VALID,330.704,VALID,23.8944,VALID,3,VALID,0,
2016-05-23, 08:59:04,VALID,919.279,VALID,0,VALID,80.2898,VALID,346.283,VALID,23.953,VALID,2,VALID,0,
2016-05-23, 09:00:04,VALID,919.301,VALID,0,VALID,78.6203,VALID,352.837,VALID,23.992,VALID,35,VALID,0,
2016-05-23, 09:01:04,VALID,919.284,VALID,0,VALID,80.0535,VALID,358.101,VALID,24.0701,VALID,37,VALID,0,
2016-05-23, 09:02:04,VALID,919.315,VALID,0,VALID,80.1297,VALID,333.712,VALID,24.2068,VALID,17,VALID,0,
2016-05-23, 09:03:04,VALID,919.33,VALID,0,VALID,78.0638,VALID,343.489,VALID,24.3416,VALID,17,VALID,0,
2016-05-23, 09:04:04,VALID,919.355,VALID,0,VALID,78.6584,VALID,339.084,VALID,24.4606,VALID,20,VALID,0,
2016-05-23, 09:05:04,VALID,919.398,VALID,0,VALID,78.2391,VALID,335.539,VALID,24.6149,VALID,34,VALID,0,
2016-05-23, 09:06:04,VALID,919.39,VALID,0,VALID,76.905,VALID,339.299,VALID,24.6949,VALID,19,VALID,0,
2016-05-23, 09:07:04,VALID,919.392,VALID,0,VALID,76.8135,VALID,318.563,VALID,24.6949,VALID,354,VALID,0,
2016-05-23, 09:08:04,VALID,919.4,VALID,0,VALID,77.0194,VALID,317.166,VALID,24.654,VALID,26,VALID,0,
2016-05-23, 09:09:04,VALID,919.415,VALID,0,VALID,76.1503,VALID,336.398,VALID,24.6149,VALID,30,VALID,0,
2016-05-23, 09:10:04,VALID,919.435,VALID,0,VALID,76.4095,VALID,362.614,VALID,24.6149,VALID,3,VALID,0.698828,
2016-05-23, 09:11:04,VALID,919.435,VALID,0,VALID,76.6153,VALID,358.639,VALID,24.6345,VALID,358,VALID,0,
2016-05-23, 09:12:04,VALID,919.46,VALID,0,VALID,76.2189,VALID,375.292,VALID,24.6949,VALID,3,VALID,0,
2016-05-23, 09:13:04,VALID,919.45,VALID,0,VALID,76.2113,VALID,378.515,VALID,24.7535,VALID,32,VALID,0.0144531,
2016-05-23, 09:14:04,VALID,919.459,VALID,0,VALID,76.8898,VALID,380.664,VALID,24.7163,VALID,31,VALID,0,
2016-05-23, 09:15:04,VALID,919.463,VALID,0,VALID,74.8543,VALID,473.171,VALID,24.5778,VALID,14,VALID,0.0617188,
2016-05-23, 09:16:04,VALID,919.434,VALID,0,VALID,74.9992,VALID,456.947,VALID,24.4606,VALID,308,VALID,0,
2016-05-23, 09:17:04,VALID,919.468,VALID,0,VALID,77.7283,VALID,554.396,VALID,24.4606,VALID,19,VALID,0,
2016-05-23, 09:18:04,VALID,919.485,VALID,0,VALID,75.6548,VALID,537.206,VALID,24.4801,VALID,20,VALID,0,
2016-05-23, 09:19:04,VALID,919.468,VALID,0,VALID,77.0575,VALID,556.223,VALID,24.5387,VALID,23,VALID,0,
2016-05-23, 09:20:04,VALID,919.48,VALID,0,VALID,78.4907,VALID,662.804,VALID,24.7321,VALID,14,VALID,0.144922,
2016-05-23, 09:21:04,VALID,919.463,VALID,0,VALID,74.2368,VALID,705.136,VALID,24.9488,VALID,12,VALID,0,
2016-05-23, 09:22:04,VALID,919.453,VALID,0,VALID,74.5189,VALID,525.71,VALID,25.2007,VALID,20,VALID,0,
2016-05-23, 09:23:04,VALID,919.436,VALID,0,VALID,73.9319,VALID,497.13,VALID,25.4156,VALID,41,VALID,0,
2016-05-23, 09:24:04,VALID,919.44,VALID,0,VALID,72.5292,VALID,523.668,VALID,25.4937,VALID,357,VALID,0,
2016-05-23, 09:25:04,VALID,919.438,VALID,0,VALID,71.8431,VALID,419.235,VALID,25.4351,VALID,18,VALID,0.687891,
2016-05-23, 09:26:04,VALID,919.453,VALID,0,VALID,72.5978,VALID,438.36,VALID,25.3765,VALID,355,VALID,0.500781,
2016-05-23, 09:27:04,VALID,919.449,VALID,0,VALID,72.4682,VALID,441.798,VALID,25.2984,VALID,325,VALID,0.0121094,
2016-05-23, 09:28:04,VALID,919.423,VALID,0,VALID,72.1404,VALID,397.317,VALID,25.2203,VALID,15,VALID,1.25898,
2016-05-23, 09:29:04,VALID,919.439,VALID,0,VALID,74.1606,VALID,300.191,VALID,25.1793,VALID,35,VALID,0,
2016-05-23, 09:30:04,VALID,919.471,VALID,0,VALID,74.801,VALID,527.429,VALID,25.2398,VALID,30,VALID,0,
2016-05-23, 09:31:04,VALID,919.476,VALID,0,VALID,74.0767,VALID,397.64,VALID,25.3179,VALID,41,VALID,0.0507813,
2016-05-23, 09:32:04,VALID,919.476,VALID,0,VALID,73.7184,VALID,440.724,VALID,25.355,VALID,27,VALID,0,
2016-05-23, 09:33:04,VALID,919.529,VALID,0,VALID,72.6283,VALID,623.803,VALID,25.2183,VALID,7,VALID,0.655469,
2016-05-23, 09:34:04,VALID,919.53,VALID,0,VALID,74.3893,VALID,613.704,VALID,25.2203,VALID,9,VALID,0.143359,
2016-05-23, 09:35:04,VALID,919.462,VALID,0,VALID,73.383,VALID,610.266,VALID,25.1402,VALID,37,VALID,0,
2016-05-23, 09:36:04,VALID,919.521,VALID,0,VALID,73.9776,VALID,606.828,VALID,25.1598,VALID,44,VALID,0,
2016-05-23, 09:37:04,VALID,919.508,VALID,0,VALID,74.801,VALID,609.406,VALID,25.2203,VALID,273,VALID,0,
2016-05-23, 09:38:04,VALID,919.499,VALID,0,VALID,74.3893,VALID,609.729,VALID,25.2593,VALID,5,VALID,0.119531,
2016-05-23, 09:39:04,VALID,919.483,VALID,0,VALID,76.0283,VALID,612.844,VALID,25.357,VALID,39,VALID,0.744531,
2016-05-23, 09:40:04,VALID,919.508,VALID,0,VALID,74.2978,VALID,616.605,VALID,25.5523,VALID,46,VALID,0,
2016-05-23, 09:41:04,VALID,919.513,VALID,0,VALID,73.505,VALID,622.944,VALID,25.8257,VALID,49,VALID,0,
2016-05-23, 09:42:04,VALID,919.533,VALID,0,VALID,73.0704,VALID,638.953,VALID,26.0386,VALID,28,VALID,0,
2016-05-23, 09:43:04,VALID,919.542,VALID,0,VALID,73.1924,VALID,650.771,VALID,26.0992,VALID,11,VALID,1.28086,
2016-05-23, 09:44:04,VALID,919.567,VALID,0,VALID,70.9588,VALID,654.424,VALID,26.0601,VALID,21,VALID,1.74453,
2016-05-23, 09:45:04,VALID,919.537,VALID,0,VALID,69.6094,VALID,664.309,VALID,25.982,VALID,7,VALID,0.0355469,
2016-05-23, 09:46:04,VALID,919.53,VALID,0,VALID,72.3691,VALID,673.871,VALID,25.8823,VALID,29,VALID,0.713672,
2016-05-23, 09:47:04,VALID,919.557,VALID,0,VALID,72.3157,VALID,694.07,VALID,25.9409,VALID,357,VALID,1.38867,
2016-05-23, 09:48:04,VALID,919.509,VALID,0,VALID,71.5458,VALID,724.368,VALID,25.8843,VALID,344,VALID,0.0105469,
2016-05-23, 09:49:04,VALID,919.531,VALID,0,VALID,71.7821,VALID,754.667,VALID,25.8237,VALID,17,VALID,1.43438,
2016-05-23, 09:50:04,VALID,919.491,VALID,0,VALID,73.1543,VALID,678.598,VALID,25.9019,VALID,19,VALID,0.325,
2016-05-23, 09:51:04,VALID,919.489,VALID,0,VALID,73.8785,VALID,834.818,VALID,26.1187,VALID,4,VALID,1.6668,
2016-05-23, 09:52:04,VALID,919.486,VALID,0,VALID,71.0731,VALID,417.946,VALID,26.2144,VALID,55,VALID,0.644141,
2016-05-23, 09:53:04,VALID,919.503,VALID,0,VALID,71.6982,VALID,478.006,VALID,26.1362,VALID,6,VALID,1.13789,
2016-05-23, 09:54:04,VALID,919.499,VALID,0,VALID,71.2866,VALID,785.18,VALID,26.0386,VALID,9,VALID,1.65781,
2016-05-23, 09:55:04,VALID,919.504,VALID,0,VALID,70.4937,VALID,659.151,VALID,25.8237,VALID,15,VALID,1.96328,
2016-05-23, 09:56:04,VALID,919.481,VALID,0,VALID,71.2408,VALID,814.082,VALID,25.648,VALID,10,VALID,3.08516,
2016-05-23, 09:57:04,VALID,919.464,VALID,0,VALID,73.4974,VALID,561.917,VALID,25.5308,VALID,23,VALID,2.07031,
2016-05-23, 09:58:04,VALID,919.421,VALID,0,VALID,73.5888,VALID,652.92,VALID,25.4117,VALID,46,VALID,1.28672,
2016-05-23, 09:59:04,VALID,919.462,VALID,0,VALID,72.7579,VALID,361.325,VALID,25.4312,VALID,62,VALID,0.791797,
2016-05-23, 10:00:04,VALID,919.47,VALID,0,VALID,73.848,VALID,437.93,VALID,25.5679,VALID,351,VALID,1.60078,
2016-05-23, 10:01:04,VALID,919.428,VALID,0,VALID,71.8736,VALID,310.183,VALID,25.6284,VALID,24,VALID,1.04492,
2016-05-23, 10:02:04,VALID,919.461,VALID,0,VALID,72.8265,VALID,859.099,VALID,25.6851,VALID,43,VALID,0.232422,
2016-05-23, 10:03:04,VALID,919.425,VALID,0,VALID,71.4085,VALID,913.142,VALID,25.8433,VALID,10,VALID,0.765234,
2016-05-23, 10:04:04,VALID,919.454,VALID,0,VALID,72.8189,VALID,467.799,VALID,25.8999,VALID,27,VALID,2.00977,
2016-05-23, 10:05:04,VALID,919.441,VALID,0,VALID,71.5305,VALID,400.326,VALID,25.9409,VALID,20,VALID,0.509375,
2016-05-23, 10:06:04,VALID,919.421,VALID,0,VALID,71.4848,VALID,330.596,VALID,25.9194,VALID,30,VALID,2.01367,
2016-05-23, 10:07:04,VALID,919.424,VALID,0,VALID,70.5471,VALID,633.258,VALID,25.7632,VALID,14,VALID,0.835547,
2016-05-23, 10:08:04,VALID,919.416,VALID,0,VALID,72.1251,VALID,549.239,VALID,25.5679,VALID,349,VALID,2.7793,
2016-05-23, 10:09:04,VALID,919.397,VALID,0,VALID,73.2687,VALID,536.991,VALID,25.3726,VALID,11,VALID,3.46133,
2016-05-23, 10:10:04,VALID,919.398,VALID,0,VALID,72.979,VALID,429.227,VALID,25.3746,VALID,348,VALID,1.18047,
2016-05-23, 10:11:04,VALID,919.413,VALID,0,VALID,73.3068,VALID,632.399,VALID,25.2965,VALID,32,VALID,0.710547,
2016-05-23, 10:12:04,VALID,919.377,VALID,0,VALID,73.8633,VALID,385.606,VALID,25.3531,VALID,50,VALID,1.99141,
2016-05-23, 10:13:04,VALID,919.38,VALID,0,VALID,74.0996,VALID,602.745,VALID,25.5113,VALID,335,VALID,0,
2016-05-23, 10:14:04,VALID,919.394,VALID,0,VALID,70.4251,VALID,293.852,VALID,25.648,VALID,314,VALID,0.638672,
2016-05-23, 10:15:04,VALID,919.372,VALID,0,VALID,72.3462,VALID,234.866,VALID,25.6284,VALID,30,VALID,0.182812,
2016-05-23, 10:16:04,VALID,919.37,VALID,0,VALID,71.5991,VALID,242.817,VALID,25.7261,VALID,21,VALID,0,
2016-05-23, 10:17:04,VALID,919.368,VALID,0,VALID,72.2014,VALID,313.406,VALID,25.8433,VALID,299,VALID,0,
2016-05-23, 10:18:04,VALID,919.358,VALID,0,VALID,69.7314,VALID,343.06,VALID,25.7847,VALID,294,VALID,0.000390625,
2016-05-23, 10:19:04,VALID,919.344,VALID,0,VALID,71.6754,VALID,305.563,VALID,25.648,VALID,221,VALID,0,
2016-05-23, 10:20:04,VALID,919.341,VALID,0,VALID,72.4758,VALID,273.008,VALID,25.7066,VALID,70,VALID,0,
2016-05-23, 10:21:04,VALID,919.312,VALID,0,VALID,71.6982,VALID,776.907,VALID,25.7261,VALID,348,VALID,0,
2016-05-23, 10:22:04,VALID,919.262,VALID,0,VALID,72.2319,VALID,819.239,VALID,25.7847,VALID,31,VALID,0,
2016-05-23, 10:23:04,VALID,919.278,VALID,0,VALID,73.7565,VALID,976.64,VALID,26.0581,VALID,31,VALID,0,
2016-05-23, 10:24:04,VALID,919.3,VALID,0,VALID,71.2484,VALID,836.752,VALID,26.4292,VALID,18,VALID,0,
2016-05-23, 10:25:04,VALID,919.304,VALID,0,VALID,69.4569,VALID,1067.64,VALID,26.7809,VALID,52,VALID,0.223047,
2016-05-23, 10:26:04,VALID,919.316,VALID,0,VALID,69.1673,VALID,335.109,VALID,27.0544,VALID,28,VALID,0.270703,
2016-05-23, 10:27:04,VALID,919.305,VALID,0,VALID,67.6883,VALID,435.566,VALID,27.2693,VALID,15,VALID,0,
2016-05-23, 10:28:04,VALID,919.354,VALID,0,VALID,67.1928,VALID,989.64,VALID,27.3865,VALID,23,VALID,0,
2016-05-23, 10:29:04,VALID,919.359,VALID,0,VALID,64.9896,VALID,1037.99,VALID,27.5624,VALID,301,VALID,0,
2016-05-23, 10:30:04,VALID,919.351,VALID,0,VALID,65.104,VALID,473.278,VALID,27.621,VALID,32,VALID,0,
2016-05-23, 10:31:04,VALID,919.392,VALID,0,VALID,65.8206,VALID,837.719,VALID,27.7578,VALID,5,VALID,0.363281,
2016-05-23, 10:32:04,VALID,919.394,VALID,0,VALID,65.1345,VALID,430.732,VALID,27.6601,VALID,323,VALID,0.0417969,
2016-05-23, 10:33:04,VALID,919.402,VALID,0,VALID,67.1928,VALID,404.516,VALID,27.2498,VALID,267,VALID,0.0984375,
2016-05-23, 10:34:04,VALID,919.397,VALID,0,VALID,68.1381,VALID,341.555,VALID,27.0153,VALID,25,VALID,0.252344,
2016-05-23, 10:35:04,VALID,919.397,VALID,0,VALID,70.326,VALID,321.034,VALID,26.8395,VALID,18,VALID,2.26055,
2016-05-23, 10:36:04,VALID,919.316,VALID,0,VALID,69.1444,VALID,323.398,VALID,26.4663,VALID,37,VALID,1.3375,
2016-05-23, 10:37:04,VALID,919.382,VALID,0,VALID,72.8646,VALID,489.394,VALID,26.312,VALID,26,VALID,1.66211,
2016-05-23, 10:38:04,VALID,919.39,VALID,0,VALID,72.2319,VALID,334.679,VALID,26.3511,VALID,360,VALID,0.148438,
2016-05-23, 10:39:04,VALID,919.365,VALID,0,VALID,71.1722,VALID,385.499,VALID,26.4097,VALID,7,VALID,0.00585938,
2016-05-23, 10:40:04,VALID,919.328,VALID,0,VALID,71.8659,VALID,798.825,VALID,26.4272,VALID,39,VALID,0.491016,
2016-05-23, 10:41:04,VALID,919.337,VALID,0,VALID,72.552,VALID,338.117,VALID,26.5855,VALID,38,VALID,0.326172,
2016-05-23, 10:42:04,VALID,919.272,VALID,0,VALID,70.387,VALID,410.533,VALID,26.6616,VALID,27,VALID,1.74375,
2016-05-23, 10:43:04,VALID,919.286,VALID,0,VALID,70.7377,VALID,705.244,VALID,26.5835,VALID,44,VALID,1.81016,
2016-05-23, 10:44:04,VALID,919.302,VALID,0,VALID,70.9359,VALID,974.276,VALID,26.6441,VALID,23,VALID,0,
2016-05-23, 10:45:04,VALID,919.291,VALID,0,VALID,70.0897,VALID,527.214,VALID,26.8199,VALID,24,VALID,0.871875,
2016-05-23, 10:46:04,VALID,919.28,VALID,0,VALID,69.4951,VALID,654.639,VALID,26.8765,VALID,360,VALID,0,
2016-05-23, 10:47:04,VALID,919.283,VALID,0,VALID,70.1202,VALID,312.976,VALID,27.0132,VALID,11,VALID,0.00117188,
2016-05-23, 10:48:04,VALID,919.283,VALID,0,VALID,67.1318,VALID,327.91,VALID,27.0523,VALID,280,VALID,0.0273438,
2016-05-23, 10:49:04,VALID,919.251,VALID,0,VALID,68.9919,VALID,420.74,VALID,26.8374,VALID,319,VALID,0.126563,
2016-05-23, 10:50:04,VALID,919.266,VALID,0,VALID,69.0834,VALID,327.91,VALID,26.603,VALID,257,VALID,0,
2016-05-23, 10:51:04,VALID,919.285,VALID,0,VALID,70.1431,VALID,268.066,VALID,26.4663,VALID,229,VALID,0,
2016-05-23, 10:52:04,VALID,919.296,VALID,0,VALID,71.1189,VALID,216.279,VALID,26.4663,VALID,229,VALID,0,
2016-05-23, 10:53:04,VALID,919.286,VALID,0,VALID,71.1875,VALID,179.212,VALID,26.5249,VALID,241,VALID,0,
2016-05-23, 10:54:04,VALID,919.314,VALID,0,VALID,72.4606,VALID,160.302,VALID,26.566,VALID,13,VALID,0,
2016-05-23, 10:55:04,VALID,919.273,VALID,0,VALID,69.152,VALID,153.748,VALID,26.3686,VALID,355,VALID,0.000390625,
2016-05-23, 10:56:04,VALID,919.292,VALID,0,VALID,70.8444,VALID,159.765,VALID,26.1147,VALID,17,VALID,1.17617,
2016-05-23, 10:57:04,VALID,919.292,VALID,0,VALID,71.9041,VALID,182.865,VALID,25.9975,VALID,318,VALID,0.04375,
2016-05-23, 10:58:04,VALID,919.292,VALID,0,VALID,73.1162,VALID,209.08,VALID,25.7632,VALID,242,VALID,0.614453,
2016-05-23, 10:59:04,VALID,919.332,VALID,0,VALID,74.6561,VALID,232.503,VALID,25.5484,VALID,250,VALID,0,
2016-05-23, 11:00:04,VALID,919.306,VALID,0,VALID,75.5709,VALID,237.123,VALID,25.5698,INVALID,360,VALID,0,
2016-05-23, 11:01:04,VALID,919.301,VALID,0,VALID,72.27,VALID,247.222,VALID,25.3336,VALID,258,VALID,1.55625,
2016-05-23, 11:02:04,VALID,919.307,VALID,0,VALID,74.6332,VALID,258.933,VALID,25.1188,VALID,247,VALID,1.19414,
2016-05-23, 11:03:04,VALID,919.294,VALID,0,VALID,76.3409,VALID,255.388,VALID,25.0407,VALID,239,VALID,0,
2016-05-23, 11:04:04,VALID,919.29,VALID,0,VALID,76.1046,VALID,234.437,VALID,25.1598,VALID,239,VALID,0,
2016-05-23, 11:05:04,VALID,919.28,VALID,0,VALID,75.3575,VALID,198.874,VALID,25.2555,VALID,217,VALID,0.00234375,
2016-05-23, 11:06:04,VALID,919.258,VALID,0,VALID,75.1821,VALID,175.451,VALID,25.236,VALID,314,VALID,1.33203,
2016-05-23, 11:07:04,VALID,919.26,VALID,0,VALID,75.4566,VALID,170.294,VALID,25.1793,VALID,253,VALID,0,
2016-05-23, 11:08:04,VALID,919.287,VALID,0,VALID,75.6853,VALID,174.699,VALID,25.1579,VALID,349,VALID,0.744531,
2016-05-23, 11:09:04,VALID,919.272,VALID,0,VALID,75.7539,VALID,188.989,VALID,25.1207,VALID,312,VALID,0,
2016-05-23, 11:10:04,VALID,919.262,VALID,0,VALID,77.3624,VALID,218.75,VALID,25.1383,VALID,294,VALID,0.00429688,
2016-05-23, 11:11:04,VALID,919.259,VALID,0,VALID,76.7068,VALID,256.032,VALID,25.1012,VALID,286,VALID,0,
2016-05-23, 11:12:04,VALID,919.262,VALID,0,VALID,76.5162,VALID,279.132,VALID,25.0817,VALID,248,VALID,0,
2016-05-23, 11:13:04,VALID,919.246,VALID,0,VALID,77.9571,VALID,238.734,VALID,25.0602,VALID,65,VALID,0,
2016-05-23, 11:14:04,VALID,919.248,VALID,0,VALID,76.6687,VALID,201.56,VALID,25.1402,VALID,10,VALID,0,
2016-05-23, 11:15:04,VALID,919.218,VALID,0,VALID,75.3041,VALID,183.939,VALID,25.0993,VALID,273,VALID,0,
2016-05-23, 11:16:04,VALID,919.215,VALID,0,VALID,76.1884,VALID,185.229,VALID,25.0621,VALID,273,VALID,0,
2016-05-23, 11:17:04,VALID,919.186,VALID,0,VALID,77.9189,VALID,204.138,VALID,24.9645,VALID,273,VALID,0,
2016-05-23, 11:18:04,VALID,919.147,VALID,0,VALID,77.7283,VALID,238.09,VALID,24.9059,VALID,273,VALID,0.471484,
2016-05-23, 11:19:04,VALID,919.151,VALID,0,VALID,78.1781,VALID,283.645,VALID,24.7693,VALID,259,VALID,0.451562,